No particular awareness of the weather is required.    There are no Weather-warnings

Webcam Vacarisses more information Webcam Vacarisses


Thunder radar more information blitzortung!


Rain radar more information rain snow radar


Visit our other weather sites:

Template documentation
and downloads

And another site



Select another period ( hide this area )

Units Period Custom range Directly to
Metric English Both
Daily Weekly Monthly Yearly
use both date-selectors for a custom range
previous Day
With this date

WeatherUnderground graphs for this period ( click here )


Daily Summary for Sunday 21 October 2018
Time Temp. ( °C ) Dew pt. ( °C ) Wind ( km/h ) from Gust ( km/h ) Pressure ( hPa ) Humid.( % ) Rainrate ( cm )
High22,3 15,9 13,0 NNW ( 101/391 ) 7,2 1022,9 94 -
Average15,8 13,8 4,0 Calm #44/159 1,4 1022,6 88 -
Low14,2 12,6 -   0,0 1020,5 67 -
Daily Tabular details for Sunday 21 October 2018
Time Temp. ( °C ) Dew pt. ( °C ) Wind ( km/h ) from Gust ( km/h ) Pressure ( hPa ) Humid.( % ) Rainrate ( cm )
00:04 16,1 14,8   Calm   1022,9 92 -
00:09 16,2 14,9   Calm   1022,9 92 -
00:14 16,2 14,9   Calm   1022,9 92 -
00:19 16,2 14,9   Calm   1022,9 92 -
00:24 16,1 14,7   Calm   1022,9 91 -
00:29 16,0 14,6   Calm   1022,9 91 -
00:34 15,9 14,4   Calm   1022,6 91 -
00:39 15,8 14,6   Calm   1022,6 92 -
00:44 15,7 14,4 1,6 WSW 0,2 1022,6 92 -
00:49 15,8 14,6 5,6 NNW 1,0 1022,6 92 -
00:54 15,9 14,5   Calm   1022,6 91 -
00:59 15,9 14,5 1,6 West   1022,6 91 -
01:04 16,1 14,6   Calm   1022,6 91 -
01:09 15,9 14,3   Calm   1022,6 90 -
01:14 15,8 14,2   Calm   1022,6 90 -
01:19 15,7 14,2   Calm   1022,6 91 -
01:24 15,6 14,3   Calm   1022,6 92 -
01:29 15,4 14,2   Calm   1022,6 92 -
01:34 15,6 14,3   Calm   1022,6 92 -
01:39 15,7 14,4   Calm   1022,6 92 -
01:44 15,6 14,2   Calm   1022,6 91 -
01:49 15,3 13,9   Calm   1022,6 91 -
01:54 15,1 13,7   Calm   1022,6 91 -
01:59 15,0 13,7 1,9 WSW   1022,6 92 -
02:04 15,0 13,9   Calm   1022,6 93 -
02:09 15,0 13,9   Calm   1022,6 93 -
02:14 15,0 13,9 1,6 WNW   1022,6 93 -
02:19 15,1 14,0 1,9 WNW 0,3 1022,6 93 -
02:24 15,1 13,9   Calm   1022,6 93 -
02:29 15,1 13,9   Calm   1022,6 93 -
02:34 15,1 14,0 3,7 NNW 1,9 1022,2 93 -
02:39 15,3 14,2 3,7 North 1,3 1022,2 93 -
02:44 15,4 14,2 1,9 North 0,6 1022,2 92 -
02:49 15,5 14,2   Calm   1022,2 92 -
02:54 15,4 14,0   Calm   1022,2 91 -
02:59 15,4 14,0   Calm   1022,2 91 -
03:04 15,4 14,1   Calm   1022,2 92 -
03:09 15,3 13,9 1,9 SSW 0,5 1022,2 91 -
03:14 15,2 13,7   Calm   1022,2 91 -
03:19 15,0 13,6   Calm   1022,2 91 -
03:24 14,8 13,6 1,9 SSW 0,2 1022,2 92 -
03:29 14,7 13,4   Calm   1022,2 92 -
03:34 14,7 13,6   Calm   1022,2 93 -
03:39 14,7 13,6   Calm   1022,2 93 -
03:44 14,7 13,6   Calm   1022,2 93 -
03:49 14,6 13,4   Calm   1022,2 93 -
03:54 14,6 13,6   Calm   1022,2 94 -
03:59 14,8 13,8 7,4 WSW 0,8 1022,2 94 -
04:04 15,0 13,9 1,9 WNW   1022,2 93 -
04:09 15,1 13,8 5,6 NW 2,7 1022,2 92 -
04:14 15,2 13,7 5,6 NNW 2,4 1022,2 91 -
04:19 15,2 13,6 5,6 North 1,6 1022,2 90 -
04:24 15,2 13,6 3,7 NNE 0,8 1022,2 90 -
04:29 15,2 13,6 1,9 NW   1022,2 90 -
04:34 15,2 13,6 3,2 NW 1,0 1022,2 90 -
04:39 15,1 13,5 1,9 NNW 0,2 1022,2 90 -
04:44 15,1 13,6   Calm   1022,2 91 -
04:49 15,0 13,6   Calm   1022,2 91 -
04:54 14,9 13,5   Calm   1022,2 91 -
04:59 14,9 13,4   Calm   1022,2 91 -
05:04 14,8 13,4 5,6 WSW 2,3 1022,2 91 -
05:09 14,8 13,3   Calm   1022,2 91 -
05:14 14,8 13,3 3,7 NNW 0,5 1022,2 91 -
05:19 14,8 13,4 3,2 North 1,0 1022,2 91 -
05:24 14,8 13,3   Calm   1022,2 91 -
05:29 14,8 13,3 1,9 NNW   1022,2 91 -
05:34 14,8 13,3   Calm   1021,9 91 -
05:39 14,8 13,3 1,9 NNW 0,2 1021,9 91 -
05:44 14,9 13,3 3,7 NW 1,1 1022,2 90 -
05:49 14,8 13,2 1,9 NNW 0,5 1022,2 90 -
05:54 14,8 13,2 4,8 WSW 2,4 1022,2 90 -
05:59 14,8 13,2 1,9 NNW 0,8 1022,2 90 -
06:04 14,8 13,2 1,9 NNE 0,5 1021,9 90 -
06:09 14,8 13,2 1,9 ENE 0,2 1022,2 90 -
06:14 14,7 13,1 1,9 NNW 0,6 1022,2 90 -
06:19 14,7 13,1 3,2 WNW 1,0 1021,9 90 -
06:24 14,7 13,1   Calm   1021,9 90 -
06:29 14,6 13,1 3,7 NE   1021,9 91 -
06:34 14,6 13,1 1,9 WNW 0,3 1021,9 91 -
06:39 14,6 13,0 1,9 West   1021,9 90 -
06:44 14,6 13,0 5,6 North 0,8 1021,9 90 -
06:49 14,6 13,0 1,9 NW 0,3 1021,9 90 -
06:54 14,6 12,9 5,6 North 1,0 1021,9 90 -
06:59 14,5 12,9 6,4 NNE 2,3 1021,9 90 -
07:04 14,5 12,9 3,7 NNE 1,3 1021,9 90 -
07:09 14,4 12,8 5,6 NNE 2,1 1021,9 90 -
07:14 14,4 12,8 1,9 NNW 1,8 1021,9 90 -
07:19 14,4 12,8 3,7 WNW 0,6 1021,9 90 -
07:24 14,3 12,7 3,2 NNW 0,8 1021,9 90 -
07:29 14,2 12,6 4,8 NW 2,3 1021,9 90 -
07:34 14,2 12,7 11,1 North 1,4 1021,9 91 -
07:39 14,2 12,7 3,2 NW 0,8 1021,9 91 -
07:44 14,2 12,7 1,9 WNW   1021,9 91 -
07:49 14,2 12,7 1,9 WNW   1021,9 91 -
07:54 14,2 12,6 4,8 NE 2,1 1021,9 90 -
07:59 14,3 12,7 3,7 NNW 0,6 1021,9 90 -
08:04 14,3 12,7 5,6 NNW 3,2 1021,9 90 -
08:09 14,3 12,7 3,7 NNE 1,0 1021,9 90 -
08:14 14,3 12,7 7,4 NNW 1,4 1021,9 90 -
08:19 14,4 12,8 1,9 NNW   1021,9 90 -
08:24 14,4 12,8 3,7 WSW   1021,9 90 -
08:29 14,4 12,8 3,7 North 0,8 1021,9 90 -
08:34 14,4 12,8 3,7 North 1,4 1021,9 90 -
08:39 14,5 12,9 3,7 NE 1,3 1021,9 90 -
08:44 14,6 13,1 3,2 NNE 1,1 1021,9 91 -
08:49 14,7 13,1 7,4 North 1,4 1021,9 90 -
08:54 14,7 13,1 8,0 NNW 2,3 1022,2 90 -
08:59 14,7 13,1 11,1 North 2,3 1022,2 90 -
09:04 14,7 13,1 4,8 NNW 2,3 1022,2 90 -
09:09 14,7 13,2 6,4 North 3,5 1022,2 91 -
09:14 14,7 13,2 6,4 North 3,7 1022,6 91 -
09:19 14,7 13,2 7,4 WNW 5,3 1022,6 91 -
09:24 14,7 13,2 9,3 North 2,3 1022,6 91 -
09:29 14,7 13,3 7,4 NW 3,7 1022,6 91 -
09:34 14,7 13,2 7,4 NNW 2,9 1022,6 91 -
09:39 14,8 13,3 5,6 WNW 1,6 1022,6 91 -
09:44 14,8 13,3 11,1 North 6,3 1022,6 91 -
09:49 14,8 13,4 8,0 NW 4,3 1022,6 91 -
09:54 14,9 13,5 7,4 NW 4,5 1022,2 91 -
09:59 15,1 13,6 6,4 NW 2,3 1022,2 91 -
10:04 15,3 13,7 4,8 North 1,1 1022,2 90 -
10:09 15,4 13,8 5,6 North 2,1 1022,2 90 -
10:14 15,6 13,8 3,7 NW 1,4 1022,2 89 -
10:19 15,8 14,0 8,0 NNW 3,4 1022,2 89 -
10:24 16,1 14,1 5,6 NNW 1,6 1022,2 88 -
10:29 16,3 14,3 6,4 SW 1,0 1021,9 88 -
10:34 16,5 14,3 5,6 North 1,9 1021,9 87 -
10:39 16,8 14,4 9,3 NNE 3,2 1021,9 86 -
10:44 16,9 14,3 11,1 NNE 6,1 1021,9 85 -
10:49 17,0 14,4 5,6 NW 3,1 1021,9 85 -
10:54 17,2 14,4 9,7 North 5,1 1021,9 84 -
10:59 17,1 14,4 9,3 NNW 4,5 1021,9 84 -
11:04 17,3 14,6 8,0 NNW 3,7 1021,9 84 -
11:09 17,2 14,5 8,0 NNE 4,5 1021,9 84 -
11:14 17,2 14,3 9,3 NNW 6,6 1021,9 83 -
11:19 17,1 14,2 13,0 NW 7,2 1021,9 83 -
11:24 17,3 14,4 6,4 North 3,9 1021,6 83 -
11:29 17,5 14,4 11,1 North 5,3 1021,6 82 -
11:34 17,8 14,7 11,1 WNW 5,8 1021,6 82 -
11:39 17,9 14,6 9,3 NNW 5,8 1021,6 81 -
11:44 18,2 14,9 5,6 NW 2,1 1021,6 81 -
11:49 18,4 14,7 11,1 NNW 5,3 1021,6 79 -
11:54 18,6 14,9 7,4 West 2,6 1021,6 79 -
11:59 18,9 14,9 3,7 North 2,1 1021,6 78 -
12:04 19,3 15,2 6,4 NNE 1,9 1021,6 77 -
12:09 19,4 15,1 11,1 WNW 2,9 1021,6 76 -
12:14 19,6 15,1 7,4 NE 3,9 1021,6 75 -
12:19 19,9 15,3 5,6 North 1,6 1021,2 75 -
12:24 20,3 15,3 8,0 NW 3,2 1021,2 73 -
12:29 20,4 15,4 6,4 North 1,4 1021,2 73 -
12:34 20,6 15,3 11,1 NNE 5,0 1021,2 72 -
12:39 20,8 15,6 5,6 NW 3,2 1021,2 72 -
12:44 20,9 15,5 9,7 NNE 5,0 1021,2 71 -
12:49 21,0 15,6 7,4 NNW 3,4 1021,2 71 -
12:54 21,3 15,6 7,4 NNW 5,1 1020,9 70 -
12:59 21,5 15,8 6,4 NNW 2,3 1020,9 70 -
13:04 21,7 15,8 5,6 NNW 1,6 1020,9 69 -
13:09 22,0 15,8 5,6 North 3,7 1020,5 68 -
13:14 22,3 15,9 5,6 NNE 1,1 1020,5 67 -
Daily Summary for Sunday 21 October 2018
Time Temp. ( °C ) Dew pt. ( °C ) Wind ( km/h ) from Gust ( km/h ) Pressure ( hPa ) Humid.( % ) Rainrate ( cm )
High22,3 15,9 13,0 NNW ( 101/391 ) 7,2 1022,9 94 -
Average15,8 13,8 4,0 Calm #44/159 1,4 1022,6 88 -
Low14,2 12,6 -   0,0 1020,5 67 -
Daily Tabular details for Sunday 21 October 2018
Time Temp. ( °C ) Dew pt. ( °C ) Wind ( km/h ) from Gust ( km/h ) Pressure ( hPa ) Humid.( % ) Rainrate ( cm )
00:04 16,1 14,8   Calm   1022,9 92 -
00:09 16,2 14,9   Calm   1022,9 92 -
00:14 16,2 14,9   Calm   1022,9 92 -
00:19 16,2 14,9   Calm   1022,9 92 -
00:24 16,1 14,7   Calm   1022,9 91 -
00:29 16,0 14,6   Calm   1022,9 91 -
00:34 15,9 14,4   Calm   1022,6 91 -
00:39 15,8 14,6   Calm   1022,6 92 -
00:44 15,7 14,4 1,6 WSW 0,2 1022,6 92 -
00:49 15,8 14,6 5,6 NNW 1,0 1022,6 92 -
00:54 15,9 14,5   Calm   1022,6 91 -
00:59 15,9 14,5 1,6 West   1022,6 91 -
01:04 16,1 14,6   Calm   1022,6 91 -
01:09 15,9 14,3   Calm   1022,6 90 -
01:14 15,8 14,2   Calm   1022,6 90 -
01:19 15,7 14,2   Calm   1022,6 91 -
01:24 15,6 14,3   Calm   1022,6 92 -
01:29 15,4 14,2   Calm   1022,6 92 -
01:34 15,6 14,3   Calm   1022,6 92 -
01:39 15,7 14,4   Calm   1022,6 92 -
01:44 15,6 14,2   Calm   1022,6 91 -
01:49 15,3 13,9   Calm   1022,6 91 -
01:54 15,1 13,7   Calm   1022,6 91 -
01:59 15,0 13,7 1,9 WSW   1022,6 92 -
02:04 15,0 13,9   Calm   1022,6 93 -
02:09 15,0 13,9   Calm   1022,6 93 -
02:14 15,0 13,9 1,6 WNW   1022,6 93 -
02:19 15,1 14,0 1,9 WNW 0,3 1022,6 93 -
02:24 15,1 13,9   Calm   1022,6 93 -
02:29 15,1 13,9   Calm   1022,6 93 -
02:34 15,1 14,0 3,7 NNW 1,9 1022,2 93 -
02:39 15,3 14,2 3,7 North 1,3 1022,2 93 -
02:44 15,4 14,2 1,9 North 0,6 1022,2 92 -
02:49 15,5 14,2   Calm   1022,2 92 -
02:54 15,4 14,0   Calm   1022,2 91 -
02:59 15,4 14,0   Calm   1022,2 91 -
03:04 15,4 14,1   Calm   1022,2 92 -
03:09 15,3 13,9 1,9 SSW 0,5 1022,2 91 -
03:14 15,2 13,7   Calm   1022,2 91 -
03:19 15,0 13,6   Calm   1022,2 91 -
03:24 14,8 13,6 1,9 SSW 0,2 1022,2 92 -
03:29 14,7 13,4   Calm   1022,2 92 -
03:34 14,7 13,6   Calm   1022,2 93 -
03:39 14,7 13,6   Calm   1022,2 93 -
03:44 14,7 13,6   Calm   1022,2 93 -
03:49 14,6 13,4   Calm   1022,2 93 -
03:54 14,6 13,6   Calm   1022,2 94 -
03:59 14,8 13,8 7,4 WSW 0,8 1022,2 94 -
04:04 15,0 13,9 1,9 WNW   1022,2 93 -
04:09 15,1 13,8 5,6 NW 2,7 1022,2 92 -
04:14 15,2 13,7 5,6 NNW 2,4 1022,2 91 -
04:19 15,2 13,6 5,6 North 1,6 1022,2 90 -
04:24 15,2 13,6 3,7 NNE 0,8 1022,2 90 -
04:29 15,2 13,6 1,9 NW   1022,2 90 -
04:34 15,2 13,6 3,2 NW 1,0 1022,2 90 -
04:39 15,1 13,5 1,9 NNW 0,2 1022,2 90 -
04:44 15,1 13,6   Calm   1022,2 91 -
04:49 15,0 13,6   Calm   1022,2 91 -
04:54 14,9 13,5   Calm   1022,2 91 -
04:59 14,9 13,4   Calm   1022,2 91 -
05:04 14,8 13,4 5,6 WSW 2,3 1022,2 91 -
05:09 14,8 13,3   Calm   1022,2 91 -
05:14 14,8 13,3 3,7 NNW 0,5 1022,2 91 -
05:19 14,8 13,4 3,2 North 1,0 1022,2 91 -
05:24 14,8 13,3   Calm   1022,2 91 -
05:29 14,8 13,3 1,9 NNW   1022,2 91 -
05:34 14,8 13,3   Calm   1021,9 91 -
05:39 14,8 13,3 1,9 NNW 0,2 1021,9 91 -
05:44 14,9 13,3 3,7 NW 1,1 1022,2 90 -
05:49 14,8 13,2 1,9 NNW 0,5 1022,2 90 -
05:54 14,8 13,2 4,8 WSW 2,4 1022,2 90 -
05:59 14,8 13,2 1,9 NNW 0,8 1022,2 90 -
06:04 14,8 13,2 1,9 NNE 0,5 1021,9 90 -
06:09 14,8 13,2 1,9 ENE 0,2 1022,2 90 -
06:14 14,7 13,1 1,9 NNW 0,6 1022,2 90 -
06:19 14,7 13,1 3,2 WNW 1,0 1021,9 90 -
06:24 14,7 13,1   Calm   1021,9 90 -
06:29 14,6 13,1 3,7 NE   1021,9 91 -
06:34 14,6 13,1 1,9 WNW 0,3 1021,9 91 -
06:39 14,6 13,0 1,9 West   1021,9 90 -
06:44 14,6 13,0 5,6 North 0,8 1021,9 90 -
06:49 14,6 13,0 1,9 NW 0,3 1021,9 90 -
06:54 14,6 12,9 5,6 North 1,0 1021,9 90 -
06:59 14,5 12,9 6,4 NNE 2,3 1021,9 90 -
07:04 14,5 12,9 3,7 NNE 1,3 1021,9 90 -
07:09 14,4 12,8 5,6 NNE 2,1 1021,9 90 -
07:14 14,4 12,8 1,9 NNW 1,8 1021,9 90 -
07:19 14,4 12,8 3,7 WNW 0,6 1021,9 90 -
07:24 14,3 12,7 3,2 NNW 0,8 1021,9 90 -
07:29 14,2 12,6 4,8 NW 2,3 1021,9 90 -
07:34 14,2 12,7 11,1 North 1,4 1021,9 91 -
07:39 14,2 12,7 3,2 NW 0,8 1021,9 91 -
07:44 14,2 12,7 1,9 WNW   1021,9 91 -
07:49 14,2 12,7 1,9 WNW   1021,9 91 -
07:54 14,2 12,6 4,8 NE 2,1 1021,9 90 -
07:59 14,3 12,7 3,7 NNW 0,6 1021,9 90 -
08:04 14,3 12,7 5,6 NNW 3,2 1021,9 90 -
08:09 14,3 12,7 3,7 NNE 1,0 1021,9 90 -
08:14 14,3 12,7 7,4 NNW 1,4 1021,9 90 -
08:19 14,4 12,8 1,9 NNW   1021,9 90 -
08:24 14,4 12,8 3,7 WSW   1021,9 90 -
08:29 14,4 12,8 3,7 North 0,8 1021,9 90 -
08:34 14,4 12,8 3,7 North 1,4 1021,9 90 -
08:39 14,5 12,9 3,7 NE 1,3 1021,9 90 -
08:44 14,6 13,1 3,2 NNE 1,1 1021,9 91 -
08:49 14,7 13,1 7,4 North 1,4 1021,9 90 -
08:54 14,7 13,1 8,0 NNW 2,3 1022,2 90 -
08:59 14,7 13,1 11,1 North 2,3 1022,2 90 -
09:04 14,7 13,1 4,8 NNW 2,3 1022,2 90 -
09:09 14,7 13,2 6,4 North 3,5 1022,2 91 -
09:14 14,7 13,2 6,4 North 3,7 1022,6 91 -
09:19 14,7 13,2 7,4 WNW 5,3 1022,6 91 -
09:24 14,7 13,2 9,3 North 2,3 1022,6 91 -
09:29 14,7 13,3 7,4 NW 3,7 1022,6 91 -
09:34 14,7 13,2 7,4 NNW 2,9 1022,6 91 -
09:39 14,8 13,3 5,6 WNW 1,6 1022,6 91 -
09:44 14,8 13,3 11,1 North 6,3 1022,6 91 -
09:49 14,8 13,4 8,0 NW 4,3 1022,6 91 -
09:54 14,9 13,5 7,4 NW 4,5 1022,2 91 -
09:59 15,1 13,6 6,4 NW 2,3 1022,2 91 -
10:04 15,3 13,7 4,8 North 1,1 1022,2 90 -
10:09 15,4 13,8 5,6 North 2,1 1022,2 90 -
10:14 15,6 13,8 3,7 NW 1,4 1022,2 89 -
10:19 15,8 14,0 8,0 NNW 3,4 1022,2 89 -
10:24 16,1 14,1 5,6 NNW 1,6 1022,2 88 -
10:29 16,3 14,3 6,4 SW 1,0 1021,9 88 -
10:34 16,5 14,3 5,6 North 1,9 1021,9 87 -
10:39 16,8 14,4 9,3 NNE 3,2 1021,9 86 -
10:44 16,9 14,3 11,1 NNE 6,1 1021,9 85 -
10:49 17,0 14,4 5,6 NW 3,1 1021,9 85 -
10:54 17,2 14,4 9,7 North 5,1 1021,9 84 -
10:59 17,1 14,4 9,3 NNW 4,5 1021,9 84 -
11:04 17,3 14,6 8,0 NNW 3,7 1021,9 84 -
11:09 17,2 14,5 8,0 NNE 4,5 1021,9 84 -
11:14 17,2 14,3 9,3 NNW 6,6 1021,9 83 -
11:19 17,1 14,2 13,0 NW 7,2 1021,9 83 -
11:24 17,3 14,4 6,4 North 3,9 1021,6 83 -
11:29 17,5 14,4 11,1 North 5,3 1021,6 82 -
11:34 17,8 14,7 11,1 WNW 5,8 1021,6 82 -
11:39 17,9 14,6 9,3 NNW 5,8 1021,6 81 -
11:44 18,2 14,9 5,6 NW 2,1 1021,6 81 -
11:49 18,4 14,7 11,1 NNW 5,3 1021,6 79 -
11:54 18,6 14,9 7,4 West 2,6 1021,6 79 -
11:59 18,9 14,9 3,7 North 2,1 1021,6 78 -
12:04 19,3 15,2 6,4 NNE 1,9 1021,6 77 -
12:09 19,4 15,1 11,1 WNW 2,9 1021,6 76 -
12:14 19,6 15,1 7,4 NE 3,9 1021,6 75 -
12:19 19,9 15,3 5,6 North 1,6 1021,2 75 -
12:24 20,3 15,3 8,0 NW 3,2 1021,2 73 -
12:29 20,4 15,4 6,4 North 1,4 1021,2 73 -
12:34 20,6 15,3 11,1 NNE 5,0 1021,2 72 -
12:39 20,8 15,6 5,6 NW 3,2 1021,2 72 -
12:44 20,9 15,5 9,7 NNE 5,0 1021,2 71 -
12:49 21,0 15,6 7,4 NNW 3,4 1021,2 71 -
12:54 21,3 15,6 7,4 NNW 5,1 1020,9 70 -
12:59 21,5 15,8 6,4 NNW 2,3 1020,9 70 -
13:04 21,7 15,8 5,6 NNW 1,6 1020,9 69 -
13:09 22,0 15,8 5,6 North 3,7 1020,5 68 -
13:14 22,3 15,9 5,6 NNE 1,1 1020,5 67 -

Download your copy of this data-set  here

Our weather-data as stored at Weather Underground. Script developed by Jim McMurry. Adapted for the template by Leuven-Template.eu

You find our weather info also at:

UK Metoffice

European Weather Network

WeatherCloud

Weather Underground

AWEKAS

WeatherlinkIP

Citizen Weather Observer Program (CWOP)

HAMweather, WeatherForYou, PWS Weather

Equipment we use:

Weather-station
Davis Vantage Vue

Weather-program
Weather Display

Weather-server
My Computer

Provider
My provider

Davis Vantage Vue

Weather Display

My Computer

My provider